Theta_e
301 300 302 301 302 301 301 300 299 299 300 300 300 301 301 301 298 300 300 301 302 305 307 308 310 310 309 309 309 309 308 307 306 306 304 303 302 301 300 300 299 298
299 299 299 299 298 298 299 299 300 299 300 299 300 300 297 297 298 299 299 300 300 301 302 304 305 307 308 308 308 308 307 306 306 305 304 303 302 302 301 301 300 300
297 297 298 299 300 300 299 298 298 298 299 299 297 296 298 296 297 297 298 299 299 299 300 301 303 304 305 307 308 307 307 306 305 305 303 303 302 302 301 301 300 299
296 298 299 299 299 299 298 297 296 296 295 296 296 297 297 296 297 297 297 296 298 299 299 300 301 302 304 306 306 306 306 306 306 305 304 303 302 302 301 301 300 299
295 297 297 298 297 297 295 296 297 296 296 297 294 294 295 295 295 295 295 295 296 297 298 298 299 300 301 302 304 304 305 305 304 304 303 302 302 301 301 299 298 297
293 295 296 296 297 296 296 297 297 296 296 294 297 296 295 295 295 294 294 295 295 296 296 297 297 298 299 300 301 303 303 303 302 302 301 300 299 298 299 298 297 297
294 293 294 294 294 294 295 296 295 294 294 295 291 294 292 294 294 295 295 295 295 295 295 296 296 296 297 299 300 300 301 301 299 298 299 299 298 298 297 297 297 297
293 291 292 291 292 292 292 293 292 293 293 289 291 294 291 294 294 294 293 294 294 295 295 295 295 297 295 296 297 297 297 299 299 297 297 297 297 297 297 297 296 296
289 289 288 288 289 290 290 291 290 289 288 290 291 291 289 292 293 292 293 293 293 293 294 294 294 294 293 293 294 296 296 297 298 297 297 297 297 297 297 297 296 295
287 287 287 287 288 289 289 289 289 289 287 289 290 289 290 290 290 292 291 291 292 292 292 293 293 292 292 292 294 295 296 296 296 296 296 297 297 297 297 296 296 295
286 286 286 287 288 288 288 288 288 288 287 289 289 289 290 290 290 289 290 291 292 292 293 293 293 293 292 292 293 294 295 295 296 296 296 296 296 297 295 297 296 296
286 286 286 287 287 287 288 288 287 287 288 288 288 290 290 289 290 289 289 291 291 292 293 293 292 292 292 293 293 293 293 294 294 295 295 296 296 296 296 296 296 296
287 287 286 286 286 287 287 286 287 287 287 288 288 288 289 289 289 290 289 290 291 292 292 292 293 292 292 292 293 293 293 293 293 294 294 294 295 295 296 296 296 296
287 287 287 287 287 287 287 286 286 286 287 287 286 287 288 288 289 290 290 289 290 291 291 291 291 292 292 292 292 292 292 292 292 293 294 294 294 294 294 295 295 295
287 287 286 287 287 287 287 287 287 287 287 287 286 287 287 288 288 289 289 290 290 290 290 290 291 292 292 292 292 292 292 292 292 292 292 293 293 294 294 294 294 294
287 286 286 285 286 286 287 287 287 287 287 287 287 287 287 287 287 288 288 289 290 290 290 290 291 292 291 292 293 293 292 292 292 292 292 292 293 293 293 293 293 294
286 287 286 287 287 286 286 286 287 286 286 286 286 287 287 287 286 287 288 288 289 289 290 290 291 292 292 294 295 295 293 292 292 292 292 292 292 292 292 292 292 292
285 286 286 287 287 287 287 286 286 286 286 286 286 286 286 285 286 287 287 287 288 288 289 290 291 291 293 294 294 295 294 292 292 292 292 292 293 293 293 293 292 292
285 285 286 286 286 286 286 286 286 286 286 286 287 287 285 285 286 286 287 287 287 287 288 289 289 291 293 294 294 294 294 293 292 292 291 291 292 292 292 292 292 291
284 285 285 285 285 285 285 285 285 286 286 286 286 286 286 286 286 286 287 286 287 287 288 288 289 290 293 293 293 294 294 294 292 291 291 291 292 292 292 292 291 291
285 285 285 285 285 284 284 284 285 285 285 286 286 286 286 287 287 287 287 287 287 287 287 288 289 291 292 292 293 293 294 294 292 291 291 291 291 292 292 292 292 291
286 285 285 285 286 285 285 286 286 285 286 286 285 285 286 285 286 286 286 287 287 287 287 287 289 291 291 292 292 293 294 291 290 290 290 290 290 291 291 291 291 291
285 285 285 285 285 285 285 286 286 286 286 284 285 286 285 286 286 286 286 286 287 287 286 287 288 289 291 291 292 293 292 290 289 289 289 289 290 290 291 290 290 290
285 284 284 284 284 284 285 285 286 286 285 285 284 286 286 287 286 286 287 286 286 286 287 287 287 288 290 291 291 292 291 289 288 288 288 288 288 289 289 290 289 288
284 284 283 283 284 284 284 284 285 285 285 285 285 284 285 286 286 286 286 287 286 286 286 286 287 287 289 290 291 291 290 288 288 288 287 288 288 288 289 289 289 287
284 283 283 283 283 284 284 284 284 284 285 285 285 285 285 285 285 285 285 286 286 286 286 286 286 286 287 289 290 290 291 288 287 287 287 287 287 288 288 288 288 287
Wind_Speed
6 5 6 6 6 6 5 6 6 7 7 6 7 7 7 7 5 6 7 6 6 7 6 7 6 7 6 5 5 5 6 9 10 10 11 12 13 15 15 17 16 14
7 6 5 5 5 5 6 6 7 7 7 7 7 6 4 4 5 6 6 7 7 7 7 7 7 7 7 6 6 7 7 8 11 8 11 13 13 13 16 17 17 15
5 5 6 7 8 7 7 6 6 6 6 6 4 4 5 5 5 6 6 6 7 7 7 7 7 7 7 7 7 8 9 10 11 9 10 11 11 13 13 13 12 14
5 6 7 7 7 7 6 5 5 5 4 5 6 6 5 5 6 6 6 6 7 7 7 7 8 7 7 8 8 8 9 10 11 10 11 10 11 12 12 11 12 12
5 5 6 6 5 5 5 5 6 6 6 6 4 4 6 5 6 6 6 6 7 7 7 8 7 8 7 8 8 8 9 9 9 8 9 10 10 11 11 11 12 13
4 5 5 6 6 5 6 7 7 6 6 5 8 6 7 7 8 8 8 8 7 8 8 7 7 7 7 7 7 8 8 9 8 8 10 10 9 9 9 10 12 14
6 4 5 5 5 5 6 7 5 5 6 6 4 6 4 6 6 7 7 7 7 8 8 8 8 8 7 7 8 9 9 9 7 8 10 9 9 10 10 11 12 14
5 4 4 4 5 5 6 7 5 6 6 4 5 6 5 7 7 7 6 7 7 8 8 8 8 9 7 7 9 9 9 8 9 9 9 10 9 11 10 10 11 12
4 4 4 4 5 5 6 7 6 5 4 5 6 6 5 6 7 7 7 7 8 8 8 8 9 9 7 8 9 10 10 9 9 9 11 11 11 12 12 10 11 12
4 4 4 4 5 6 6 6 5 5 4 5 7 5 7 7 6 7 6 7 8 8 9 9 9 8 8 8 11 11 11 11 10 10 11 11 12 13 12 11 12 12
4 4 4 5 6 5 7 6 5 5 4 6 6 7 7 7 6 5 6 7 8 9 10 9 10 9 9 9 10 10 11 11 11 11 11 12 12 12 12 12 12 13
4 4 4 5 5 5 6 6 5 5 6 6 6 8 7 6 6 5 6 8 8 10 10 9 8 8 9 10 11 10 10 10 10 11 11 11 12 12 12 11 12 13
5 5 4 5 5 5 5 5 5 5 6 7 6 6 7 7 6 7 7 8 10 9 9 10 9 8 9 10 11 10 10 11 11 11 11 11 11 12 11 11 12 12
6 5 6 6 5 5 5 5 5 5 6 6 5 6 7 7 8 8 8 7 9 8 9 8 8 8 9 10 10 11 11 11 11 12 12 12 12 12 12 12 12 12
6 5 5 5 5 6 6 6 6 6 6 6 5 6 6 7 6 7 8 9 8 9 9 8 9 10 9 10 11 12 11 12 12 12 12 12 12 12 12 12 12 12
6 6 6 5 5 5 6 6 6 6 6 6 6 6 6 6 7 7 8 9 10 9 9 9 10 9 11 17 16 12 10 11 11 12 12 12 12 12 12 12 13 12
7 7 7 8 6 6 5 6 6 6 6 7 7 7 7 6 7 8 8 9 10 10 10 10 10 10 15 17 19 20 14 11 12 12 11 12 12 13 13 12 12 12
6 6 7 7 7 7 7 7 6 6 7 7 7 7 7 5 7 9 9 8 8 9 10 11 11 13 16 18 18 19 17 13 12 12 12 12 12 13 13 12 12 11
6 6 7 7 7 7 7 7 7 7 8 7 8 7 5 6 8 7 9 8 8 10 11 11 11 14 16 18 17 19 19 17 12 13 12 13 13 13 13 12 11 11
5 5 6 6 6 6 6 6 6 7 7 7 7 6 6 8 8 9 9 8 8 10 11 11 12 13 15 17 17 19 19 17 13 13 13 14 14 13 12 12 12 12
5 5 6 6 5 5 5 5 6 7 6 6 7 7 7 9 9 9 9 8 9 9 10 13 12 14 15 17 17 18 19 17 13 12 12 14 13 13 13 13 12 12
9 10 10 9 9 9 8 9 8 7 8 8 6 7 6 7 8 7 10 11 10 9 10 14 14 13 15 17 17 18 19 12 11 12 13 13 14 13 12 12 12 12
10 11 11 11 10 11 12 11 11 12 9 5 8 8 7 8 8 8 8 9 10 9 11 13 14 12 14 17 16 18 14 11 11 11 12 13 14 12 12 12 12 12
10 9 11 11 11 11 12 12 10 8 8 6 7 11 12 10 8 10 9 7 9 11 10 12 15 12 12 15 16 17 15 11 10 10 13 13 13 12 11 11 12 16
8 9 9 10 11 11 10 11 11 10 10 8 8 7 10 10 9 9 11 10 8 10 13 13 14 15 13 14 16 16 14 10 10 10 13 13 11 12 11 10 11 11
8 9 9 8 10 11 10 9 8 9 10 9 10 8 9 10 10 9 11 13 11 9 11 11 12 13 12 13 16 16 17 12 9 11 13 14 11 12 12 11 10 10
Wind_Direction
232 219 227 223 228 223 224 219 218 220 220 217 215 219 214 221 208 209 220 224 230 235 237 237 235 234 229 227 228 228 224 226 222 216 217 215 217 214 215 216 216 219
232 232 233 229 234 227 227 218 222 215 225 219 222 222 221 207 216 207 214 220 223 228 231 236 238 239 239 236 229 232 234 228 230 217 220 214 218 219 224 222 220 220
236 235 230 229 230 231 227 225 222 225 224 228 226 217 223 210 217 213 216 217 224 228 227 229 234 235 236 236 233 234 233 229 231 220 221 222 219 219 222 222 224 221
238 233 236 238 236 238 233 230 230 230 232 235 223 223 213 216 214 218 218 219 225 228 226 225 228 230 231 230 229 235 237 238 233 217 218 219 221 222 224 222 227 228
242 245 245 248 247 245 244 237 237 228 225 228 230 216 216 218 219 221 219 223 222 230 227 227 225 228 224 228 226 236 237 242 235 229 228 225 220 218 222 219 223 227
254 240 244 242 241 241 241 239 240 236 234 228 225 213 211 208 210 212 212 217 217 223 228 228 229 228 223 226 230 236 239 242 240 232 234 232 230 222 223 220 224 228
258 248 251 247 253 244 247 248 246 237 236 234 244 235 223 231 229 225 222 220 220 223 223 224 224 226 219 222 228 237 237 240 242 233 238 242 236 235 226 225 226 229
268 263 257 255 252 256 253 257 253 245 243 248 238 242 210 232 232 230 225 221 223 227 225 225 227 227 220 216 226 233 238 235 241 238 241 244 237 241 232 229 231 233
279 275 268 264 263 262 259 258 257 255 248 244 250 251 236 233 237 232 225 223 227 230 230 227 224 226 219 214 226 230 234 236 235 236 239 241 240 241 238 233 233 232
292 284 280 269 266 264 266 267 265 263 251 247 253 254 248 243 235 238 231 227 232 234 233 232 229 225 221 219 227 227 230 233 233 236 238 239 241 243 239 234 234 235
289 287 279 277 269 272 271 275 272 270 261 252 258 257 252 254 252 238 242 238 238 238 239 235 232 226 224 227 231 231 232 231 232 235 238 239 240 241 239 236 235 234
302 300 282 275 276 278 274 275 274 266 263 257 245 256 258 255 255 248 235 243 241 244 243 245 239 230 229 233 235 235 235 234 233 234 238 240 241 239 238 235 236 236
335 324 307 292 285 280 281 280 272 264 259 260 250 249 257 260 253 252 243 240 245 244 245 244 242 233 232 234 238 238 238 238 237 234 237 240 242 241 239 238 236 236
332 325 320 309 303 300 293 286 281 274 264 263 261 257 253 251 254 254 253 241 248 247 248 245 245 242 238 239 239 239 237 240 238 240 239 237 239 239 239 239 238 236
323 323 316 315 315 312 307 300 291 281 279 274 266 263 256 257 257 254 259 258 254 248 251 243 242 242 238 236 240 241 238 243 242 241 240 243 243 241 239 238 240 238
332 325 324 315 313 307 302 299 294 291 287 281 272 263 264 260 260 255 253 256 259 256 250 246 245 244 239 237 235 239 240 243 245 244 243 243 245 247 245 240 240 239
338 335 333 333 326 315 308 302 296 291 286 279 274 269 266 264 256 261 254 252 254 257 257 250 247 243 241 241 241 241 242 247 246 249 244 244 244 244 248 244 241 239
333 328 329 322 325 319 316 307 302 299 290 283 280 278 268 258 258 254 258 255 256 256 255 254 252 247 244 245 244 244 241 243 248 251 250 247 245 244 247 245 243 241
329 328 319 314 311 308 304 306 303 300 293 291 284 276 278 267 262 263 260 256 252 258 258 256 256 251 248 249 247 245 243 241 248 247 250 251 247 246 246 246 244 244
315 311 306 298 295 294 293 292 290 283 281 276 280 285 275 276 272 265 267 262 255 255 262 262 257 256 249 249 248 247 245 242 246 247 248 251 250 248 248 246 242 242
319 313 310 307 299 295 293 287 282 285 282 278 279 278 279 276 278 279 271 263 261 257 261 266 260 255 252 249 248 247 247 244 247 248 250 252 251 248 246 246 243 242
339 334 330 329 328 327 323 320 317 307 308 307 291 282 268 265 271 258 266 269 262 259 262 266 267 256 252 251 248 249 248 247 246 246 250 252 253 249 247 245 244 241
339 332 328 327 327 327 325 324 325 322 317 307 301 295 285 280 272 268 264 266 269 259 258 268 273 262 250 252 248 248 248 248 246 247 250 251 252 250 247 246 240 237
329 327 321 321 322 321 318 314 313 304 298 304 301 306 305 299 293 292 282 264 267 271 258 267 276 270 252 254 248 246 241 247 248 249 253 251 255 252 248 247 241 233
316 314 312 311 312 308 308 306 308 307 303 307 296 291 289 295 296 291 292 284 266 267 271 265 272 278 266 258 255 248 244 246 249 250 255 254 253 256 249 244 243 232
309 310 305 304 303 303 302 296 298 305 307 308 305 300 296 297 295 289 289 289 287 275 275 266 269 275 272 256 257 253 245 244 245 250 252 257 253 253 257 247 239 233